Погода в Уляхине

Россия / Владимирская область     55°20′08″N   40°44′58″E
темп.,
°C
ветер,
м/с
пор.,
м/с
влажн.,
%
обл.,
%
осадки,
мм/ч
давл.,
гПа
погр.,
м
20 апреля, вт
вт2000:00+5всв51060100 0.1 1024916
03:00+4в51167100 0.1 1023627
06:00+3в51269100 0.0 1023637
09:00+2в51292100 0.7 1023692
12:00+3в51395100 1.6 1022812
15:00+4вюв61395100 3.6 1021958
18:00+3в51397100 2.3 1018995
21:00+5в71691100 3.6 10161094
21 апреля, ср
ср2100:00+4в81991100 3.9 10101199
03:00+4в81991100 10.8 10061161
06:00+6вюв91890100 1.1 10021004
09:00+4ююв71592100 4.3 10031074
12:00+5ю71383100 0.1 10051028
15:00+4ююз61187100 0.1 10091066
18:00+5ююз51083100 0.0 10121091
21:00+4ююз31090100 0.1 1014558
22 апреля, чт
чт2200:00+4ю2792100 0.0 1015242
03:00+4ю2793100 0.0 1015201
06:00+4ю2793100 0.0 1016209
09:00+8ююз457798 0.1 1017966
12:00+8ююз368261 0.4 1018752
15:00+10ююз3664100 0.5 10181281
18:00+11ююз2664100 0.0 1018198
21:00+6ю368036 0.0 101990
23 апреля, пт
пт2300:00+5ююв388748 0.0 1019142
03:00+5ю389423 0.0 1020159
06:00+6ююв399546 0.0 1020190
09:00+12ю476865 0.0 1020510
12:00+16ююз57528 0.2 10191526
15:00+17ююз564796 1.3 10182166
18:00+14ююв376467 0.0 1018195
21:00+10ююв3118545 1.5 1018276
24 апреля, сб
сб2400:00+9ююв312879 0.0 1017272
03:00+8ююв4128740 0.0 1016301
06:00+8ююв412875 0.0 1014318
09:00+13ю5126562 0.0 1012772
12:00+15ююз61155100 0.9 10111975
15:00+9зюз4686100 3.2 1011655
18:00+6зюз3687100 0.0 1012525
21:00+5ююз378443 0.0 1012619